Tracking 17147 objects as of 5-July-2015
HD Live streaming from Space Station

SCOUT X-4 DEB

Track SCOUT X-4 DEB now!
10-day predictions
SCOUT X-4 DEB is classified as:


NORAD ID: 2088
Int'l Code: 1965-093D
Perigee: 667.0 km
Apogee: 776.5 km
Inclination: 59.7 °
Period: 99.1 minutes
Semi major axis: 7092 km
RCS: 0.0298 m2 (small)
Launch date: November 19, 1965
Source: United States (US)

Note: This is SATELLITE DEBRIS
Your satellite tracking list
Your tracking list is empty





NASA's NSSDC Master Catalog

Two Line Element Set (TLE):
1 02088U 65093D   15185.21360654  .00000309  00000-0  10874-3 0  9993
2 02088 059.7210 062.7604 0077220 288.3915 070.8743 14.53390500592176

Source of the keplerian elements: AFSPC

N2YO: 295